Regional Weather Roundup
Issued by NWS

Home | Current Version | Previous Version | Text Only | Print | Product List | Glossary Off
Versions: 1 2 3 4 5 6 7 8 9 10 11 12 13 14 15 16 17 18 19 20 21 22 23 24 25 26 27 28 29 30 31 32 33 34 35 36 37 38 39 40 41 42 43 44 45 46 47 48 49 50

000
ASUS45 KCYS 060610
RWRWY

WYOMING REGIONAL WEATHER ROUNDUP
NATIONAL WEATHER SERVICE CHEYENNE WY
1100 PM MST FRI FEB 05 2016

NOTE:  "FAIR" INDICATES FEW OR NO CLOUDS BELOW 12,000 FEET
WITH NO SIGNIFICANT WEATHER AND/OR OBSTRUCTIONS TO VISIBILITY.

WYZ001-060700-
YELLOWSTONE NATIONAL PARK

CITY           SKY/WX    TMP DP  RH WIND       PRES   REMARKS
LK YELLOWSTONE   N/A     18  15  88 CALM      30.38R
6HR MIN TEMP:  17; 6HR MAX TEMP:  18;

W YELLOWSTONE  NOT AVBL

$$
WYZ002>013-054>058-071-098>099-060700-
NORTHERN WYOMING

CITY           SKY/WX    TMP DP  RH WIND       PRES   REMARKS
JACKSON        MOCLDY    12  10  92 NE6       30.41S WCI   3
CODY           FAIR      37  16  41 W12G32    30.15F WCI  30
GREYBULL       FAIR      20  14  77 S3        30.24R
6HR MIN TEMP:  20; 6HR MAX TEMP:  34;

WORLAND        FAIR      15  11  83 SW8       30.24S WCI   4
6HR MIN TEMP:  15; 6HR MAX TEMP:  32;

SHERIDAN       FAIR      25  13  60 CALM      30.09F
6HR MIN TEMP:  20; 6HR MAX TEMP:  33;

BUFFALO        FAIR      27  11  51 SW8       30.11F WCI  19
6HR MIN TEMP:  25; 6HR MAX TEMP:  32;

GILLETTE       FAIR      27  12  53 SW20      30.12F WCI  13
6HR MIN TEMP:  27; 6HR MAX TEMP:  30;

HULETT         FAIR      30  16  55 SW12      30.12S WCI  21
NEWCASTLE      FAIR      23  14  68 SE6       30.17F WCI  16

$$
WYZ014>020-022>026-101>103-060700-
CENTRAL WYOMING

CITY           SKY/WX    TMP DP  RH WIND       PRES   REMARKS
BIG PINEY      FAIR      14   9  80 NW7       30.37F WCI   4
6HR MIN TEMP:  12; 6HR MAX TEMP:  26;

PINEDALE       FAIR      18  12  79 NW15      30.35F WCI   3
DUBOIS         FAIR      23  14  68 N24G38    30.26F WCI   7
LANDER         FAIR      23  10  57 CALM      30.21S
6HR MIN TEMP:  16; 6HR MAX TEMP:  28;

RIVERTON       FAIR      17   8  67 SW3       30.23S
6HR MIN TEMP:  17; 6HR MAX TEMP:  26;

CASPER         FAIR      23  15  71 SW23      30.23S WCI   7
6HR MIN TEMP:  22; 6HR MAX TEMP:  24;

DOUGLAS        FAIR      23  13  65 NW7         N/A  WCI  15
6HR MIN TEMP:  16; 6HR MAX TEMP:  25;


$$
WYZ021-027>030-104>119-060700-
SOUTHERN WYOMING

CITY           SKY/WX    TMP DP  RH WIND       PRES   REMARKS
EVANSTON       FAIR      17  12  80 SW6       30.44F WCI   9
6HR MIN TEMP:  17; 6HR MAX TEMP:  26;

FORT BRIDGER   CLOUDY    23  19  86 W17       30.47S WCI   9
ROCK SPRINGS   FAIR      21  15  78 W23G30    30.38R WCI   5
6HR MIN TEMP:  21; 6HR MAX TEMP:  25;

DIXON          CLOUDY    18  13  81 NW5       30.47S WCI  11
RAWLINS        MOCLDY    21  13  71 VRB3      30.32F
6HR MIN TEMP:  19; 6HR MAX TEMP:  22;

SARATOGA       FAIR      12   5  73 S6        30.38R WCI   3
LARAMIE        FAIR      17   7  64 SW18      30.25S WCI   1
6HR MIN TEMP:  11; 6HR MAX TEMP:  19;

CHEYENNE       FAIR      24   9  52 W15       30.21F WCI  11
6HR MIN TEMP:  20; 6HR MAX TEMP:  27;

TORRINGTON     FAIR      25  14  63 W8        30.22F WCI  16
6HR MIN TEMP:  20; 6HR MAX TEMP:  30;

PINE BLUFFS    FAIR      21  10  63 W13       30.24S WCI   9

$$



USA.gov is the U.S. government's official web portal to all federal, state and local government web resources and services.